SKYNET 5C

Last updated on Sat Apr 13 2024 01:02:37 GMT+0100 (British Summer Time)

1 33055U 08030A 24103.37409043 -.00000147 00000+0 00000+0 0 9998 2 33055 1.7387 85.9494 0004835 306.0522 285.9222 1.00271848 57970
UTC large
Height (km)
Speed (km/s)
/
Latitude / Longitude
Inclination (degrees)
Orbital Period (minutes)
Azimuth
Elevation
Range (km)
Doppler Factor

Next 0 passes for location: London (51.5072 / 0.1276)

Sorry there are no passes over London.